DW0268 Weather Reports


time (UTC)temp
C
wind
direction
speed
KPH
gust
KPH
rain 1hr
cm
rain 24hr
cm
rain mn
cm
humidity
%
barometer
mb
20260508051517 12 168 1.6 4.8 0.00 0.00 0.00 83 1019.1
20260508050010 12 173 1.6 6.4 0.00 0.00 0.00 82 1018.9
20260508044505 12 167 1.6 4.8 0.00 0.00 0.00 81 1019.0
20260508043004 12 155 1.6 4.8 0.00 0.00 0.00 80 1019.1
20260508041503 12 150 4.8 8.0 0.00 0.00 0.00 80 1018.9
20260508040008 12 156 3.2 4.8 0.00 0.00 0.00 80 1018.8
20260508034502 13 162 4.8 8.0 0.00 0.00 0.00 80 1019.0
20260508033004 13 148 3.2 6.4 0.00 0.00 0.00 80 1019.2
20260508031501 13 138 1.6 4.8 0.00 0.00 0.00 79 1019.1
20260508030001 13 137 4.8 8.0 0.00 0.00 0.00 79 1018.9
20260508024500 13 141 3.2 8.0 0.00 0.00 0.00 78 1018.9
20260508023100 14 140 4.8 8.0 0.00 0.00 0.00 77 1018.7
20260508021559 14 138 4.8 8.0 0.00 0.00 0.00 77 1018.5
20260508020059 15 137 3.2 6.4 0.00 0.00 0.00 75 1018.4
20260508014557 15 133 4.8 8.0 0.00 0.00 0.00 72 1018.1
20260508013056 15 161 3.2 4.8 0.00 0.00 0.00 71 1018.2
20260508011605 15 163 4.8 8.0 0.00 0.00 0.00 69 1018.2
20260508010054 16 155 3.2 4.8 0.00 0.00 0.00 65 1018.2
20260508004555 17 142 4.8 6.4 0.00 0.00 0.00 60 1018.1
20260508003050 17 140 3.2 6.4 0.00 0.00 0.00 57 1018.0
20260508001550 18 144 1.6 6.4 0.00 0.00 0.00 52 1018.0
20260508000049 18 136 3.2 6.4 0.00 0.00 0.00 52 1018.0
20260507234558 18 111 6.4 14.5 0.00 0.00 0.00 50 1017.9
20260507233047 18 148 3.2 8.0 0.00 0.00 0.00 50 1017.9
20260507231551 18 121 3.2 11.3 0.00 0.00 0.00 49 1017.9
20260507230050 19 134 4.8 11.3 0.00 0.00 0.00 49 1017.9
20260507224545 19 57 3.2 8.0 0.00 0.00 0.00 49 1018.2
20260507223045 19 66 0.0 6.4 0.00 0.00 0.00 48 1018.2
20260507221541 19 156 1.6 4.8 0.00 0.00 0.00 50 1018.2
20260507220039 18 186 8.0 14.5 0.00 0.00 0.00 47 1018.3
20260507214538 19 179 3.2 9.7 0.00 0.00 0.00 49 1018.3
20260507213036 18 153 1.6 12.9 0.00 0.00 0.00 48 1018.4
20260507211535 18 66 3.2 12.9 0.00 0.00 0.00 47 1018.4
20260507210034 18 76 3.2 9.7 0.00 0.00 0.00 49 1018.5
20260507204531 18 86 0.0 11.3 0.00 0.00 0.00 45 1018.6
20260507203029 18 115 1.6 6.4 0.00 0.00 0.00 45 1018.7
20260507201530 17 348 3.2 8.0 0.00 0.00 0.00 46 1018.8
20260507200041 18 227 3.2 6.4 0.00 0.00 0.00 45 1019.0
20260507194525 18 360 6.4 14.5 0.00 0.00 0.00 48 1019.2
20260507193023 17 86 8.0 14.5 0.00 0.00 0.00 47 1019.3
20260507191522 17 84 4.8 14.5 0.00 0.00 0.00 49 1019.4
20260507190022 17 76 6.4 12.9 0.00 0.00 0.00 46 1019.4
20260507184519 17 65 6.4 14.5 0.00 0.00 0.00 49 1019.5
20260507183032 17 18 1.6 17.7 0.00 0.00 0.00 53 1019.6
20260507181516 17 296 3.2 8.0 0.00 0.00 0.00 50 1019.7
20260507180020 17 348 1.6 14.5 0.00 0.00 0.00 50 1020.1
20260507174515 16 355 8.0 17.7 0.00 0.00 0.00 55 1020.3
20260507173012 16 21 1.6 14.5 0.00 0.00 0.00 56 1020.7
20260507171511 16 24 3.2 12.9 0.00 0.00 0.00 58 1020.7
20260507170010 15 292 4.8 17.7 0.00 0.00 0.00 58 1020.8
20260507164509 16 29 3.2 16.1 0.00 0.00 0.00 61 1020.8
20260507163008 16 343 3.2 8.0 0.00 0.00 0.00 59 1021.0
20260507161508 16 63 4.8 12.9 0.00 0.00 0.00 58 1021.0
20260507160005 15 53 4.8 12.9 0.00 0.00 0.00 65 1021.2
20260507154506 16 44 3.2 12.9 0.00 0.00 0.00 63 1021.1
20260507153002 15 32 1.6 8.0 0.00 0.00 0.00 65 1021.3
20260507151558 15 40 3.2 12.9 0.00 0.00 0.00 68 1021.4
20260507150103 15 71 6.4 14.5 0.00 0.00 0.00 69 1021.6
20260507144553 14 55 1.6 9.7 0.00 0.00 0.00 70 1021.5
20260507143054 14 91 6.4 14.5 0.00 0.00 0.00 70 1021.2
20260507141552 13 60 6.4 12.9 0.00 0.00 0.00 72 1021.6
20260507140044 13 68 6.4 17.7 0.00 0.00 0.00 74 1021.4
20260507134551 12 61 8.0 16.1 0.00 0.00 0.00 77 1021.5
20260507133039 12 81 3.2 9.7 0.00 0.00 0.00 80 1021.5
20260507131539 11 44 3.2 9.7 0.00 0.00 0.00 81 1021.3
20260507130035 11 5 3.2 14.5 0.00 0.00 0.00 83 1021.2
20260507124534 10 38 1.6 9.7 0.00 0.00 0.00 86 1020.8
20260507123036 10 59 6.4 17.7 0.00 0.00 0.00 87 1020.9
20260507121531 9 360 8.0 14.5 0.00 0.00 0.00 89 1020.7
20260507120030 8 355 6.4 12.9 0.00 0.00 0.00 90 1020.6
20260507114533 8 355 6.4 9.7 0.00 0.00 0.00 90 1020.6
20260507113027 8 355 3.2 8.0 0.00 0.00 0.00 90 1020.4
20260507111525 8 355 4.8 9.7 0.00 0.00 0.00 90 1020.1
20260507110024 8 355 4.8 9.7 0.00 0.00 0.00 90 1019.9
20260507104524 8 355 4.8 8.0 0.00 0.00 0.00 90 1019.9
20260507103023 8 360 3.2 8.0 0.00 0.00 0.00 90 1019.8
20260507101520 8 355 1.6 8.0 0.00 0.00 0.00 90 1019.9
20260507100014 8 355 1.6 8.0 0.00 0.00 0.00 89 1019.8
20260507094512 9 345 4.8 9.7 0.00 0.00 0.00 89 1019.6
20260507093010 9 350 6.4 9.7 0.00 0.00 0.00 89 1019.4
20260507091508 9 344 4.8 9.7 0.00 0.00 0.00 89 1019.6
20260507090007 9 347 8.0 12.9 0.00 0.00 0.00 89 1019.3
20260507084504 9 334 6.4 9.7 0.00 0.00 0.00 89 1019.2
20260507083102 10 344 3.2 9.7 0.00 0.00 0.00 89 1019.2
20260507081604 10 350 3.2 6.4 0.00 0.00 0.00 88 1019.1
20260507080059 10 350 3.2 6.4 0.00 0.00 0.00 88 1019.0
20260507074559 10 10 3.2 8.0 0.00 0.00 0.00 89 1019.1
20260507073059 10 346 3.2 6.4 0.00 0.00 0.00 88 1019.0
20260507071557 10 355 3.2 6.4 0.00 0.00 0.00 88 1019.1
20260507070101 11 355 3.2 8.0 0.00 0.00 0.00 88 1019.1
20260507064550 11 5 3.2 6.4 0.00 0.03 0.00 89 1019.1
20260507063050 11 11 1.6 4.8 0.00 0.03 0.00 89 1019.2
20260507061546 11 355 1.6 4.8 0.00 0.03 0.00 89 1019.2
20260507060056 11 360 1.6 6.4 0.00 0.03 0.00 88 1019.2
20260507054547 12 340 3.2 8.0 0.00 0.05 0.00 88 1019.1
20260507053048 12 348 3.2 6.4 0.00 0.05 0.00 87 1019.3